Regional Weather Roundup
Issued by NWS

Home | Current Version | Previous Version | Text Only | Print | Product List | Glossary Off
Versions: 1 2 3 4 5 6 7 8 9 10 11 12 13 14 15 16 17 18 19 20 21 22 23 24 25 26 27 28 29 30 31 32 33 34 35 36 37 38 39 40 41 42 43 44 45 46 47 48 49 50

000
ASUS43 KLOT 311610
RWRIL

ILLINOIS REGIONAL WEATHER ROUNDUP
NATIONAL WEATHER SERVICE CHICAGO/ROMEOVILLE IL
1100 AM CDT FRI OCT 31 2014

NOTE: "FAIR" INDICATES FEW OR NO CLOUDS BELOW 12,000 FEET WITH NO
SIGNIFICANT WEATHER AND/OR OBSTRUCTIONS TO VISIBILITY.

* THESE STATIONS ARE NOT UNDER NWS QUALITY CONTROL. THEY ALSO MAY NOT
  REPORT WEATHER SUCH AS PRECIPITATION OR FOG.

ILZ001-002-007-009-015-016-024-311700-
NORTHWEST ILLINOIS

CITY           SKY/WX    TMP DP  RH WIND       PRES   REMARKS
MOLINE         MOSUNNY   40  22  48 N17G26    30.33R
STERLING*      MOSUNNY   41  21  45 N22G32    30.28R
SAVANNA*       MOSUNNY   40  19  43 N24       30.32R
$$

ILZ003-004-008-010-011-017-018-311700-
NORTH CENTRAL ILLINOIS

CITY           SKY/WX    TMP DP  RH WIND       PRES   REMARKS
ROCKFORD       PTSUNNY   37  21  52 N29G44    30.28R WCI  25
FREEPORT*      MOSUNNY   37  20  50 N23G31    30.30R WCI  26
ROCHELLE*      PTSUNNY   37  23  56 N32G39    30.24R WCI  24
DE KALB*       CLOUDY    35  22  59 N31G40    30.21R WCI  21
PERU*          SUNNY     40  23  50 N35G43    30.23R
$$

ILZ005-006-012>014-019>023-311700-
NORTHEAST ILLINOIS

CITY           SKY/WX    TMP DP  RH WIND       PRES   REMARKS
CHICAGO-OHARE  CLOUDY    37  25  61 N30G43    30.15R WCI  24
CHICAGO-MIDWAY FLURRIES  40  26  57 N23G48    30.13R
AURORA         MOSUNNY   39  24  55 N36G44    30.18R WCI  26
LANSING*       CLOUDY    39  28  65 N24G37    30.09S WCI  28
JOLIET*        CLOUDY    39  25  56 N28G36    30.16R WCI  28
WAUKEGAN       CLOUDY    35  24  64 NW21G35   30.15R WCI  24
DUPAGE AIRPORT CLOUDY    38  26  62 NW30G37   30.17R WCI  26
KANKAKEE*      CLOUDY    41  30  65 NW25G31   30.12S
WHEELING       CLOUDY    37  26  64 N25G41    30.17R WCI  25
MORRIS*        PTSUNNY   41  28  59 N17G24    30.17R
ROMEOVILLE*    RAIN      38  26  61 N21G36    30.15R WCI  28
NORTHERLY ISL    N/A     38  30  73 MISG        N/A
$$

LMZ740>746-311700-
SOUTHERN LAKE MICHIGAN

STATION/POSITION SKY/WX   TEMP    WIND        PRES    VSBY  WAVE
                          AIR SEA DIR/SP/G                  HT/PER
                          (F)     (DEG/KT/KT) (MB)    (MI)  (FT/S)
SOUTHERN BUOY              39 51  350/ 39/ 50 1016.6R        22/10
WAUKEGAN HARBOR            36     330/ 24/ 31   N/A
HARRISON CRIB              38     330/ 40/ 49   N/A
BURNHAM HARBOR             37     300/ 20/ 28   N/A
CALUMET HARBOR             38     310/ 14/ 29 1018.2R
MICHIGAN CITY              40     320/ 47/ 57   N/A
$$

ILZ025>027-034>036-040-047-049-050-058-095>099-311700-
WEST-CENTRAL ILLINOIS

CITY           SKY/WX    TMP DP  RH WIND       PRES   REMARKS
QUINCY         MOSUNNY   38  22  52 N23G30    30.36R WCI  27
GALESBURG*     MOSUNNY   39  25  58 N22G28    30.31S WCI  28
MACOMB*        MOSUNNY   39  24  55 N22G31    30.35R WCI  28
JACKSONVILLE*  PTSUNNY   41  26  54 N17G31    30.30R
PITTSFIELD*    MOSUNNY   40  25  54 N20G29    30.34R
$$

ILZ028>032-037-038-041>044-048-051>054-059>061-311700-
CENTRAL ILLINOIS

CITY           SKY/WX    TMP DP  RH WIND       PRES   REMARKS
PONTIAC        CLOUDY    42  28  57 N29G36    30.18S
BLOOMINGTON    PTSUNNY   40  28  62 N31       30.19S
DECATUR        CLOUDY    40  30  67 N20G35    30.20R
PEORIA         PTSUNNY   40  24  53 N15G26    30.26R
LACON*         MOSUNNY   40  23  50 N16G25    30.24S
LINCOLN*       CLOUDY    41  28  61 N20G29    30.24R
SPRINGFIELD    CLOUDY    40  25  55 N24G35    30.26R
TAYLORVILLE    CLOUDY    36  28  75 NW21G33   30.24R WCI  24
$$

ILZ033-039-045-046-055>057-062-063-311700-
EAST-CENTRAL ILLINOIS

CITY           SKY/WX    TMP DP  RH WIND       PRES   REMARKS
CHAMPAIGN      CLOUDY    38  30  73 N24G33    30.14S WCI  27
DANVILLE*      CLOUDY    38  30  73 N25G33    30.08R WCI  27
RANTOUL*       CLOUDY    40  31  70 N21G28    30.14R
MATTOON        PTSUNNY   40  28  62 N24G32    30.15R
PARIS*         CLOUDY    39  31  71 NW21G31   30.12R WCI  29
$$

ILZ079-100>102-311700-
SOUTHWEST ILLINOIS

CITY           SKY/WX    TMP DP  RH WIND       PRES   REMARKS
ALTON          MOSUNNY   41  19  42 N15G25    30.27R
BELLEVILLE     MOSUNNY   44  26  49 N14G24    30.24R
CAHOKIA*       MOSUNNY   43  25  49 N21G33    30.28R
SPARTA*        CLOUDY    43  31  62 N20G28    30.24R
$$

ILZ064>066-069>071-074>076-080>082-084>086-088>090-092>094-311700-
SOUTH-CENTRAL ILLINOIS

CITY           SKY/WX    TMP DP  RH WIND       PRES   REMARKS
CARBONDALE     PTSUNNY   46  30  53 N23G36    30.19R
CAIRO*         CLOUDY    53  41  63 NW23G29   30.14S
EFFINGHAM*     PTSUNNY   40  24  52 NW23G33   30.18R
MARION         PTSUNNY   46  32  57 N18G24    30.17R
MT. VERNON     CLOUDY    45  27  49 N7G22     30.18R
CENTRALIA*     MOSUNNY   44  28  54 N23G32    30.19R
SALEM*         PTSUNNY   44  28  54 NW21G28   30.20R
METROPOLIS*    CLOUDY    51  43  75 N12G18    30.11S
$$

ILZ067-068-072-073-078-083-087-091-311700-
SOUTHEAST ILLINOIS

CITY           SKY/WX    TMP DP  RH WIND       PRES   REMARKS
LAWRENCEVILLE  CLOUDY    41  33  73 NW18G25   30.12R
FLORA*         MOSUNNY   41  28  58 N22G32    30.17R
FAIRFIELD*     PTSUNNY   44  29  56 NW15G32   30.15R
HARRISBURG*    CLOUDY    44  31  60 N23G30    30.16R
ROBINSON*      CLOUDY    42  34  72 NW20G29   30.13R
CARMI*         CLOUDY    46  35  65 NW21G28   30.13R
$$

ABBREVIATIONS USED IN REMARKS
   TC - TEMPERATURE IN CELSIUS
  WCI - WIND CHILL INDEX
   HX - HEAT INDEX
  VSB - VISIBILITY
$$




USA.gov is the U.S. government's official web portal to all federal, state and local government web resources and services.